Find Kosmos-1859

NORAD ID: 18120 Int'l Des: 1987-051 Owner: UNKS Country: SU operational
LEOCIRCULAR

实时位置

正在加载3D地球...

关于 Kosmos-1859

正在加载描述...

即将过境

Passes for default location (London). Set your location on the main map for personalized predictions.

高度历史

Loading altitude history...

两行轨道根数

1 18120U 87051H 26131.18225683 -.00000001 00000-0 86571-4 0 9994
2 18120 74.0043 70.2781 0056441 66.4663 43.5684 12.57955622786351
Epoch: May 11, 2026 • Age: 9 hours

当前状态

高度 1460.9 km
速度 7.12 km/s
星下点 -41.31°S, 10.69°W
发射日期 Jun 16, 1987
运行时间 38.9 years
类型 other

技术详情

分类 Payload
质量 60.00 kg
干质量 60.00 kg
总质量 60.00 kg
长度 0.80 m
直径 0.80 m
跨度 0.80 m
形状 Poly
制造商 NPOPM
平台类型 Strela-1 11F625
阶段状态 In Orbit
所有者/国家 UNKS/SU

Most Searched